337  
ASUS44 KSHV 240410  
RWRSHV  
 
WEATHER ROUNDUP FOR THE FOUR STATE AREA  
NATIONAL WEATHER SERVICE SHREVEPORT LA  
1100 PM CDT THU MAR 23 2017  
 
NOTE: "FAIR" INDICATES FEW OR NO CLOUDS BELOW 12000 FEET  
WITH NO SIGNIFICANT WEATHER AND/OR S TO VISIBILITY
.  
 
!LAZ001-LAZ014-TXZ097-240500  
SHREVEPORT...MONROE...TEXARKANA RADIOS  
 
CITY SKY/WX TMP DP RH WIND PRES REMARKS
 
SHREVEPORT CLEAR 71 48 43 S14 30.05R  
MONROE CLEAR 71 52 50 S7 30.10R  
NATCHITOCHES CLEAR 68 53 57 S9 30.08F  
TEXARKANA CLEAR 69 50 50 S9 30.02R  

 
 
!LAZ001-LAZ014-TXZ097-240500  
OTHER LOCATIONS...  
 
CITY SKY/WX TMP DP RH WIND PRES REMARKS
 
DOWNTOWN SHV CLEAR 75 45 34 S17G25 30.04R  
BOSSIER CITY CLEAR 67 53 59 S10 30.05R  
RUSTON CLEAR 70 49 47 S6 30.11S  
LITTLE ROCK CLEAR 68 53 58 S8 30.04S  
EL DORADO PTCLDY 71 47 42 S8 30.06R  
JACKSON CLEAR 71 57 61 S12 30.17R  
NEW ORLEANS PTCLDY 71 67 87 SE13 30.20S  
HOUSTON MOCLDY 70 62 76 S13G25 30.05F  
LUFKIN CLEAR 66 55 67 S10 30.06S  
TYLER CLEAR 72 45 37 S17G28 29.99S  
DAL FT WORTH PTCLDY 75 46 35 S23G38 29.87R  

 
 
!TXZ136-TXZ165-240500  
TYLER...LUFKIN RADIOS  
 
CITY SKY/WX TMP DP RH WIND PRES REMARKS
 
TYLER CLEAR 72 45 37 S17G28 29.99S  
GILMER CLEAR 71 45 38 SE15 30.00S  
LONGVIEW CLEAR 71 50 47 S14G22 30.01R  
LUFKIN CLEAR 66 55 67 S10 30.06S  

 
 
!TXZ136-TXZ165-240500  
OTHER LOCATIONS...  
 
CITY SKY/WX TMP DP RH WIND PRES REMARKS
 
NACOGDOCHES CLEAR 68 50 52 S13G18 30.04S  
BEAUMONT MOCLDY 70 64 81 SE13 30.09S  
HOUSTON MOCLDY 70 62 76 S13G25 30.05F  
COLLEGE STN PTCLDY 69 61 75 SE20G25 30.01F  
AUSTIN CLOUDY 70 62 76 SE23G29 29.93F  
DAL FT WORTH PTCLDY 75 46 35 S23G38 29.87R  
TEXARKANA CLEAR 69 50 50 S9 30.02R  
SHREVEPORT CLEAR 71 48 43 S14 30.05R  
FORT POLK CLEAR 67 59 73 SE10 30.09F  
LAKE CHARLES PTCLDY 66 64 93 S6 30.11S FOG  

 
 
 
CLICK HERE TO GO TO PREVIOUS BULLETINS.

The Nexlab LA Page
The Nexlab TX Page
The Nexlab AR Page
The Nexlab OK Page Main Text Page